Wind_Speed
19 20 20 19 19 20 21 21 21 21 22 21 21 22 22 22 21 20 20 20 21 21 21 21 21 21 22 22 22 23 23 22 22 23 23 22 22 23 22 22 22 22 21 21
20 20 21 20 20 21 22 22 22 22 21 21 22 22 23 23 22 22 22 22 21 21 21 21 21 22 22 23 24 24 24 24 24 24 24 23 23 23 23 23 23 23 22 23
21 21 22 21 20 22 22 22 22 22 21 21 22 22 22 23 23 23 23 24 23 23 22 22 22 23 23 24 25 25 25 25 25 25 25 25 24 24 24 25 24 24 24 24
22 22 22 21 21 22 23 23 23 22 22 22 22 23 24 24 24 24 25 24 25 25 24 24 24 25 25 25 26 26 26 26 26 26 27 27 27 26 27 27 26 26 26 27
22 22 22 21 21 22 23 23 22 22 22 23 23 23 24 24 25 25 25 26 26 26 26 26 26 26 26 26 26 27 27 28 27 27 27 28 28 28 28 28 27 27 28 28
23 23 22 21 21 22 23 22 22 22 23 23 24 24 24 24 25 25 26 27 27 28 28 27 27 28 27 26 27 27 27 27 27 27 28 28 28 28 29 28 28 28 28 28
25 25 24 23 23 23 23 22 22 22 23 23 24 25 25 25 26 26 27 27 28 29 29 30 30 29 29 28 28 27 27 26 27 28 29 29 29 29 30 30 30 30 30 29
26 26 25 24 24 24 24 24 23 23 24 25 25 25 26 27 27 27 28 28 29 29 30 30 31 30 30 29 29 28 28 28 28 29 29 29 30 30 30 30 31 31 31 30
27 27 26 25 25 25 25 25 24 25 25 26 26 27 28 29 29 29 30 30 30 30 30 30 31 31 31 30 30 30 30 30 30 30 30 30 30 31 32 32 32 32 32 32
28 28 28 27 26 26 26 27 27 27 27 28 28 29 30 30 31 31 31 31 31 31 31 30 30 30 31 31 31 31 31 32 31 31 31 31 31 31 32 32 32 32 33 33
29 29 29 29 29 28 28 29 29 29 30 30 31 31 32 32 33 33 33 33 33 32 31 31 30 30 31 31 32 32 33 33 32 32 32 32 32 32 32 32 32 32 33 34
29 29 30 30 30 30 31 31 31 31 32 33 33 34 34 35 35 35 34 34 33 33 32 32 32 32 32 32 33 33 33 33 33 33 33 33 33 33 32 33 33 33 33 34
29 30 30 30 31 32 32 32 33 34 34 34 35 36 36 36 35 35 35 35 34 33 33 33 33 33 33 33 33 33 33 33 34 34 34 34 34 34 34 34 35 35 35 36
30 30 30 30 31 32 34 35 35 35 35 36 37 37 37 36 36 35 35 35 35 34 34 34 34 34 34 34 34 34 34 34 34 34 35 35 35 35 36 36 36 36 37 38
30 30 30 31 32 32 34 35 36 36 36 37 37 37 36 35 35 35 34 34 34 34 34 34 34 35 35 35 35 34 34 34 34 34 35 36 36 36 36 37 37 37 38 38
31 31 31 32 32 33 33 34 35 35 36 36 36 36 35 35 34 34 33 33 33 34 34 34 34 34 34 34 34 34 34 34 34 34 34 35 35 36 37 37 37 37 38 39
31 31 31 32 33 33 33 34 34 35 35 35 36 36 35 35 34 34 34 34 34 34 34 34 33 33 34 34 34 34 34 34 34 34 35 35 36 36 36 37 36 37 37 38
30 31 31 32 33 33 33 33 33 33 34 34 35 35 34 34 34 34 34 34 34 34 34 34 34 34 34 34 34 34 34 34 34 35 35 35 35 36 36 37 37 37 38 38
31 31 31 32 32 33 33 33 33 33 34 34 34 33 34 34 34 34 34 34 34 34 35 35 35 35 35 35 35 35 34 34 34 35 35 35 35 36 37 37 38 38 39 39
31 32 32 32 32 32 33 33 33 34 34 34 33 34 34 34 35 35 35 36 35 35 35 35 35 34 34 34 34 35 35 35 35 35 35 36 36 36 37 37 38 39 40 40
30 31 31 31 31 31 31 32 32 33 33 33 34 34 35 35 35 35 36 36 35 35 35 34 34 34 34 34 34 35 35 36 36 36 36 36 36 36 37 38 38 39 39 40
30 30 29 30 30 30 30 30 31 32 32 33 33 33 33 33 34 34 35 35 34 34 34 33 34 34 34 34 35 35 35 35 35 35 35 36 36 37 37 38 38 38 39 39
30 29 29 29 29 29 29 30 30 31 32 32 32 32 32 32 33 33 33 33 33 34 34 34 34 34 35 35 35 35 34 34 34 34 35 35 36 37 37 38 38 38 38 37
29 29 29 29 29 30 30 30 31 31 31 31 31 31 32 32 33 33 33 33 33 33 33 34 34 34 34 34 34 33 33 33 34 35 35 36 36 37 37 37 37 36 36 35
30 30 30 30 31 31 32 32 32 31 32 32 32 32 33 33 33 33 32 32 32 32 32 33 33 32 32 32 31 31 31 32 32 33 33 34 34 34 34 34 34 34 33 33
32 32 32 33 33 33 33 33 33 33 33 33 33 33 33 33 33 33 32 32 32 32 31 31 31 31 30 30 30 29 29 30 31 32 33 33 33 32 32 32 32 31 31 30
32 32 33 34 34 35 35 34 34 34 34 34 33 33 33 33 33 33 33 33 33 32 32 31 30 30 30 29 30 30 30 31 32 32 32 32 31 31 30 30 29 29 28 28
Wind_Direction
269 269 270 270 269 271 273 275 276 278 281 282 284 286 288 288 289 291 291 291 290 290 288 286 284 283 282 283 284 285 284 283 280 278 275 274 273 272 274 274 274 275 274 274
269 271 273 272 272 273 275 276 277 278 281 282 282 284 287 289 288 289 290 290 290 290 289 288 286 285 283 283 284 285 285 283 280 277 275 273 272 272 273 274 274 274 273 273
268 271 273 273 274 273 273 275 278 278 279 280 281 284 286 288 289 289 290 289 288 289 289 288 287 286 284 283 284 285 285 283 281 277 275 273 272 271 272 272 273 272 272 272
269 268 270 273 273 274 274 275 278 278 278 279 280 282 283 285 288 288 289 289 288 288 289 287 286 287 286 284 283 284 284 283 280 277 276 274 272 271 272 272 271 271 272 271
272 272 272 273 274 275 276 277 278 278 278 279 280 281 282 284 286 289 289 289 289 289 289 289 286 286 286 285 284 284 283 281 280 278 277 276 273 272 272 272 271 272 272 272
273 274 274 274 274 275 276 276 277 278 278 279 280 281 284 285 287 288 290 290 289 288 288 288 286 286 286 285 284 284 283 282 280 278 277 276 273 272 272 271 271 271 272 272
271 273 275 276 275 274 274 277 278 278 278 280 282 283 283 284 286 288 290 289 288 288 287 285 285 286 286 285 284 284 284 282 280 280 279 277 275 273 272 272 271 271 271 272
269 271 273 274 274 274 275 276 277 278 279 281 283 283 284 285 287 288 289 290 289 288 286 285 285 285 285 285 284 283 283 282 280 281 282 280 276 274 273 272 271 271 270 271
269 271 273 273 275 276 276 277 278 278 280 282 283 284 285 286 288 289 289 289 288 287 286 285 283 283 283 283 282 282 283 283 281 280 280 280 277 276 274 273 273 273 272 272
270 271 272 273 275 276 278 278 279 280 281 282 283 284 285 287 288 289 289 288 287 287 287 285 284 283 282 283 283 284 284 284 283 281 280 279 277 276 276 274 274 273 273 273
269 271 271 272 275 277 277 279 279 280 281 282 283 284 285 286 287 288 288 288 286 286 286 284 284 284 283 283 284 285 284 284 283 282 281 280 279 278 277 276 276 275 274 275
269 270 271 271 272 274 276 277 279 280 281 282 284 285 286 286 286 287 288 287 286 285 284 283 283 284 284 284 284 285 284 283 282 281 280 280 279 278 277 276 277 277 277 277
270 270 270 272 272 272 274 276 278 280 281 283 284 284 286 286 286 286 287 287 286 284 283 283 284 284 284 284 284 284 283 283 282 281 280 280 279 278 276 276 276 276 277 278
272 272 272 273 274 275 275 276 279 281 282 283 285 285 285 285 285 286 286 286 285 285 285 285 285 285 284 284 283 283 283 282 282 281 280 279 278 278 277 277 277 277 278 278
273 273 274 276 276 277 277 277 279 280 282 284 285 286 286 285 284 285 286 286 286 286 286 286 286 286 285 284 283 282 282 281 281 280 279 279 278 278 279 279 278 278 278 277
273 274 275 276 278 278 278 279 279 280 281 284 285 286 285 284 284 284 285 286 287 287 287 287 286 285 285 285 283 282 282 282 281 281 280 280 280 279 280 281 280 280 279 278
273 274 276 276 278 279 280 280 281 282 283 284 285 285 285 285 284 284 284 285 286 286 287 286 286 285 285 285 284 283 283 282 282 282 282 282 281 281 281 282 282 281 281 279
276 277 278 279 280 280 280 281 283 283 284 284 285 285 285 285 285 285 285 285 286 286 287 287 286 285 285 285 284 284 284 284 283 283 283 282 282 283 282 282 282 282 282 281
277 278 280 281 281 280 280 281 283 283 284 284 285 285 285 286 286 286 286 286 286 286 287 287 286 285 284 285 285 285 285 284 284 284 283 283 283 284 284 283 283 283 282 280
280 280 280 281 281 282 282 282 283 284 284 283 284 284 285 285 285 285 286 286 286 286 286 286 286 285 284 284 284 285 285 285 285 285 284 284 285 285 285 284 283 283 282 281
282 281 281 282 283 284 284 284 284 285 285 285 285 285 285 285 285 286 286 286 287 287 287 286 286 286 285 285 285 285 286 286 285 285 285 285 286 286 286 285 285 284 283 282
281 281 281 281 283 284 285 285 285 285 285 285 286 286 286 286 286 287 288 287 287 287 287 286 285 285 285 286 286 287 288 288 287 287 287 287 287 287 286 286 286 286 285 284
280 281 280 281 282 284 285 286 286 286 285 286 286 286 286 286 287 288 289 288 288 287 287 287 287 286 286 286 287 288 288 287 286 287 287 288 288 288 288 288 288 288 287 285
278 279 280 281 283 284 286 287 288 288 287 287 287 287 288 289 289 289 290 290 290 290 289 289 288 288 287 287 287 288 287 286 286 288 289 289 290 290 289 289 289 288 287 286
279 279 279 281 283 285 287 288 288 288 289 288 287 287 288 289 289 289 290 290 291 291 291 291 290 289 288 287 287 288 288 288 288 290 291 292 292 292 291 291 290 290 288 286
279 280 281 281 284 285 287 287 288 289 289 289 288 288 289 289 289 289 290 291 292 292 292 292 292 291 290 288 288 289 289 290 291 294 296 296 295 294 293 293 292 291 290 288
280 281 283 285 286 286 286 286 286 287 287 287 287 287 288 289 289 289 290 291 291 291 290 291 292 292 291 290 291 292 291 292 293 295 296 297 297 296 296 295 293 292 291 290
Height
5825 5825 5824 5824 5824 5823 5822 5821 5821 5820 5819 5818 5817 5815 5813 5812 5811 5809 5808 5807 5805 5803 5802 5801 5800 5799 5798 5798 5796 5795 5794 5793 5792 5791 5790 5790 5789 5789 5789 5788 5788 5788 5788 5787
5820 5819 5818 5818 5818 5817 5816 5815 5814 5814 5814 5812 5811 5809 5807 5806 5804 5803 5802 5800 5799 5797 5796 5794 5793 5792 5791 5791 5790 5789 5787 5786 5785 5784 5783 5783 5782 5782 5782 5782 5781 5781 5781 5781
5814 5813 5812 5812 5812 5811 5810 5809 5808 5807 5808 5806 5804 5803 5801 5799 5798 5797 5795 5794 5792 5791 5789 5788 5787 5786 5785 5783 5782 5781 5780 5779 5778 5777 5775 5775 5775 5774 5774 5774 5774 5774 5773 5773
5808 5808 5807 5809 5806 5805 5803 5803 5802 5801 5800 5799 5798 5797 5795 5793 5792 5790 5788 5787 5785 5784 5782 5781 5780 5778 5777 5776 5775 5773 5772 5771 5769 5769 5767 5766 5766 5766 5766 5766 5766 5766 5765 5765
5801 5800 5800 5801 5800 5798 5797 5796 5795 5794 5793 5792 5791 5790 5788 5787 5785 5784 5782 5780 5778 5776 5775 5774 5772 5771 5770 5768 5767 5765 5764 5762 5761 5760 5759 5759 5758 5758 5758 5757 5757 5757 5757 5756
5794 5793 5794 5796 5794 5791 5791 5789 5789 5787 5786 5785 5784 5783 5783 5781 5779 5777 5775 5773 5771 5769 5767 5766 5765 5763 5762 5760 5759 5757 5755 5754 5753 5752 5751 5750 5750 5749 5748 5748 5748 5748 5747 5747
5787 5786 5787 5787 5786 5785 5785 5785 5783 5781 5779 5778 5777 5777 5776 5773 5771 5770 5768 5766 5763 5761 5760 5758 5757 5755 5753 5752 5750 5749 5747 5746 5745 5743 5742 5741 5741 5740 5739 5739 5739 5738 5738 5738
5780 5779 5781 5779 5778 5778 5778 5776 5775 5774 5773 5771 5770 5769 5767 5766 5764 5762 5760 5758 5755 5753 5751 5749 5748 5746 5745 5744 5742 5741 5739 5737 5736 5735 5733 5732 5731 5731 5730 5729 5729 5728 5728 5728
5773 5774 5772 5771 5771 5770 5770 5769 5768 5766 5765 5764 5763 5761 5759 5758 5756 5753 5751 5749 5747 5745 5742 5741 5739 5737 5736 5734 5733 5732 5730 5728 5727 5726 5724 5723 5722 5721 5720 5719 5719 5718 5718 5717
5764 5764 5764 5763 5763 5762 5761 5761 5760 5759 5757 5756 5754 5753 5751 5749 5747 5745 5742 5740 5738 5735 5733 5731 5729 5728 5726 5725 5723 5722 5721 5719 5717 5716 5715 5713 5712 5711 5710 5709 5708 5708 5707 5707
5756 5756 5755 5755 5754 5754 5753 5752 5751 5750 5749 5747 5745 5744 5742 5740 5738 5735 5733 5730 5728 5726 5724 5722 5720 5718 5717 5715 5713 5712 5710 5709 5708 5706 5705 5703 5702 5701 5700 5699 5698 5697 5697 5696
5748 5748 5747 5747 5746 5745 5744 5743 5742 5740 5739 5737 5735 5734 5732 5729 5727 5725 5723 5720 5718 5716 5714 5712 5710 5708 5707 5705 5703 5702 5700 5699 5697 5696 5695 5693 5692 5691 5690 5689 5688 5686 5685 5684
5739 5738 5737 5737 5736 5736 5734 5733 5732 5731 5729 5728 5726 5724 5721 5719 5717 5714 5712 5710 5708 5706 5704 5702 5700 5698 5696 5694 5693 5691 5689 5688 5686 5685 5684 5683 5682 5681 5680 5679 5677 5676 5674 5673
5729 5728 5728 5727 5726 5726 5724 5723 5722 5720 5718 5717 5715 5713 5711 5708 5706 5703 5701 5699 5697 5695 5693 5691 5689 5687 5685 5683 5682 5680 5678 5677 5675 5674 5673 5672 5671 5669 5668 5667 5666 5664 5663 5661
5720 5719 5718 5718 5717 5716 5714 5713 5711 5709 5707 5706 5704 5702 5700 5697 5695 5693 5691 5689 5687 5685 5683 5680 5678 5676 5674 5672 5670 5669 5667 5666 5664 5663 5661 5660 5659 5657 5656 5655 5653 5652 5650 5649
5711 5710 5709 5708 5707 5705 5704 5702 5700 5699 5697 5695 5693 5691 5689 5687 5684 5682 5681 5679 5676 5674 5672 5670 5667 5665 5663 5661 5659 5657 5656 5654 5653 5651 5650 5648 5647 5645 5644 5642 5641 5639 5638 5636
5701 5700 5699 5698 5696 5695 5693 5692 5690 5689 5687 5685 5683 5680 5678 5676 5674 5672 5670 5668 5666 5663 5661 5659 5656 5654 5652 5650 5648 5646 5645 5643 5642 5640 5638 5637 5635 5634 5632 5630 5628 5627 5625 5623
5691 5690 5689 5687 5686 5685 5683 5681 5680 5678 5676 5674 5672 5670 5668 5666 5664 5662 5659 5657 5655 5653 5650 5648 5645 5643 5641 5639 5637 5636 5634 5632 5630 5629 5627 5625 5623 5622 5620 5618 5616 5614 5613 5611
5681 5680 5679 5677 5676 5674 5672 5671 5669 5667 5665 5663 5661 5659 5657 5655 5653 5651 5648 5646 5644 5642 5640 5637 5634 5632 5630 5629 5627 5625 5623 5621 5619 5617 5615 5614 5612 5610 5608 5605 5604 5602 5599 5598
5672 5670 5669 5667 5665 5664 5662 5660 5658 5656 5654 5652 5650 5648 5646 5644 5642 5639 5637 5635 5632 5630 5628 5626 5623 5621 5619 5617 5615 5613 5612 5610 5608 5606 5604 5602 5600 5598 5595 5593 5591 5588 5586 5584
5662 5660 5658 5657 5655 5653 5651 5649 5647 5645 5643 5641 5639 5637 5635 5633 5630 5628 5626 5624 5621 5619 5616 5614 5612 5610 5608 5606 5604 5602 5600 5598 5596 5594 5592 5590 5588 5585 5583 5580 5578 5575 5573 5571
5652 5650 5649 5647 5645 5643 5641 5639 5637 5635 5633 5631 5628 5626 5624 5621 5619 5617 5614 5612 5610 5607 5605 5603 5601 5599 5597 5595 5593 5591 5589 5587 5585 5582 5580 5578 5575 5573 5570 5568 5565 5563 5560 5558
5642 5640 5639 5637 5635 5633 5631 5629 5627 5625 5622 5620 5618 5615 5613 5611 5608 5606 5604 5601 5599 5596 5594 5592 5590 5588 5586 5584 5582 5580 5578 5576 5573 5571 5568 5566 5563 5561 5558 5555 5553 5550 5548 5545
5632 5631 5629 5627 5625 5623 5622 5619 5617 5614 5612 5609 5607 5605 5602 5600 5598 5595 5593 5591 5588 5586 5583 5581 5579 5577 5575 5573 5571 5569 5567 5565 5562 5560 5557 5554 5551 5548 5546 5543 5540 5537 5535 5533
5622 5621 5619 5617 5615 5614 5611 5609 5606 5604 5601 5599 5597 5594 5592 5590 5588 5585 5583 5580 5578 5575 5573 5571 5568 5566 5564 5562 5560 5558 5556 5554 5551 5548 5546 5543 5540 5537 5534 5531 5528 5526 5523 5521
5612 5610 5609 5607 5605 5603 5601 5598 5596 5594 5591 5589 5587 5584 5582 5580 5577 5575 5572 5570 5568 5566 5563 5561 5559 5556 5554 5552 5550 5548 5546 5543 5541 5538 5535 5532 5529 5526 5523 5520 5517 5515 5512 5510
5600 5599 5597 5595 5593 5591 5589 5587 5585 5583 5581 5578 5576 5574 5572 5569 5567 5565 5563 5561 5558 5556 5554 5552 5549 5547 5545 5543 5541 5539 5536 5534 5531 5528 5525 5522 5519 5516 5513 5510 5507 5505 5502 5500